Helicity
209 224 267 292 314 331 334 339 314 281 212 216 225 235 228 225 223 191 179 152 114 87 58 2 -23 -59 -92 -125 -124 -145 -134 -128 -47 -126 6 51 91 145 271 225 257 279 262
293 312 328 326 334 349 362 361 355 341 301 250 223 198 163 161 137 118 107 78 42 6 -35 -73 -105 -113 -146 -139 -148 -158 -204 -201 -150 -191 -213 -72 121 204 182 241 254 257 254
371 346 336 334 346 331 307 315 315 317 313 279 206 178 141 103 109 93 50 30 -3 -33 -50 -66 -91 -96 -120 -143 -158 -160 -155 -149 -118 -103 -120 -108 -18 63 108 178 229 219 221
389 385 402 393 369 401 399 380 338 339 337 291 270 257 212 165 138 102 48 19 6 -16 -25 -24 -36 -51 -86 -105 -134 -121 -150 -123 -94 -78 -32 -60 -71 -43 -45 -12 78 154 192
453 372 323 341 359 344 338 340 340 337 319 297 269 237 217 166 123 104 86 59 30 23 17 22 12 1 -35 -49 -66 -69 -58 -52 -59 -54 -38 -2 -15 -86 -80 -40 -1 21 20
368 415 417 416 397 365 335 307 308 316 296 273 256 235 211 176 157 138 103 74 51 46 74 89 69 69 62 48 47 59 54 42 28 11 -12 -40 -44 -10 -42 -43 6 -24 -112
377 439 433 370 327 312 306 294 293 309 286 259 240 219 192 165 143 118 92 91 79 78 106 119 128 147 146 134 135 114 95 86 75 68 57 31 -6 -22 -21 -50 -66 -132 -42
343 359 341 339 337 319 300 294 292 295 273 253 219 178 144 115 93 85 77 68 77 85 104 123 174 197 203 167 143 126 115 111 110 101 93 83 63 37 5 -30 -57 -73 -119
318 344 373 377 354 330 309 294 288 269 245 209 172 139 108 96 76 75 68 71 88 104 153 187 183 162 151 156 155 137 127 123 121 115 111 102 96 84 61 36 -5 -62 -140
330 347 357 336 319 298 302 296 272 244 192 148 123 100 80 68 69 77 83 104 151 175 178 158 154 151 144 142 148 143 135 134 126 123 121 114 109 106 92 72 51 23 -22
298 321 351 346 333 311 291 273 237 197 156 124 103 90 88 99 112 131 162 175 165 146 149 146 142 142 147 148 150 143 136 126 127 132 135 135 126 118 112 90 71 52 22
334 361 330 302 283 285 277 250 190 150 116 99 95 100 133 162 170 176 156 155 154 142 133 137 136 134 133 134 132 127 132 131 130 138 140 133 141 128 115 101 81 62 40
391 376 306 286 288 279 239 191 132 90 86 122 151 173 173 158 147 158 155 148 144 140 132 129 127 126 128 130 132 124 117 114 122 127 127 122 118 113 105 91 84 63 40
422 416 345 304 262 192 133 117 101 139 193 208 181 157 162 176 178 165 145 139 129 119 117 114 110 107 108 110 106 101 99 101 103 93 95 96 90 89 88 78 54 50 47
371 364 333 232 158 118 144 193 204 190 174 185 188 171 178 165 152 143 131 127 125 120 107 100 94 91 94 98 81 82 89 89 86 82 79 78 69 46 52 89 77 61 58
286 262 219 201 202 186 179 173 166 186 231 220 205 193 183 169 164 148 131 124 111 100 100 97 94 91 99 67 67 79 92 85 84 85 76 73 65 73 61 44 26 36 61
214 198 188 173 151 138 137 139 159 187 193 196 173 170 166 161 154 146 146 134 114 102 97 95 93 86 79 52 59 65 90 90 87 77 79 78 79 65 69 56 41 44 40
168 134 114 102 95 128 138 145 152 160 171 173 175 178 177 176 174 179 163 143 122 114 104 93 84 82 81 46 55 62 90 95 84 79 72 69 66 61 57 61 65 70 90
67 48 67 109 131 140 141 154 159 160 173 150 166 169 186 186 188 197 181 147 139 134 120 101 91 87 73 48 56 66 92 93 77 72 69 69 63 45 39 76 81 93 108
102 112 132 155 161 135 166 184 159 176 164 165 185 206 205 207 210 195 199 180 162 141 142 115 106 85 86 59 55 68 99 96 96 71 65 43 57 42 43 80 97 116 105
116 123 136 132 137 145 186 178 168 186 161 190 212 218 206 200 198 192 206 192 176 157 154 123 120 99 81 77 48 48 96 102 100 101 94 91 48 43 57 47 84 85 69
88 99 117 133 140 153 174 169 185 168 193 228 235 217 210 205 196 205 189 184 180 171 148 143 116 103 87 61 54 42 45 48 87 100 101 87 52 45 32 36 21 7 25
101 105 120 124 132 146 184 172 160 167 184 212 207 212 207 199 197 203 175 170 172 171 157 152 127 109 95 94 56 50 41 37 79 83 70 29 25 19 39 39 32 28 54
115 113 119 133 135 141 146 151 155 163 186 178 189 204 216 185 189 178 179 182 170 168 166 148 133 121 114 101 91 95 93 44 36 26 60 44 40 32 59 76 75 66 47
121 123 130 135 134 136 147 145 128 143 169 184 186 188 190 184 174 169 176 184 165 149 146 140 141 130 124 134 93 67 97 109 132 76 113 75 61 74 69 57 33 25 37
117 124 126 133 135 139 141 135 133 143 158 163 161 170 185 181 149 147 138 78 55 42 39 30 98 173 96 34 33 44 4 21 40 79 89 108 82 39 5 -6 6 20 18
Wind_Speed
23 20 20 20 21 23 24 26 26 29 28 32 34 35 37 38 41 43 46 48 50 52 54 55 58 61 63 65 68 70 73 75 79 76 75 67 63 54 66 60 63 65 68
29 27 25 25 27 25 26 28 29 31 32 33 34 36 35 37 40 44 46 49 51 53 55 57 60 63 66 69 71 73 74 73 75 77 73 77 67 61 67 65 67 69 74
33 31 29 28 27 28 28 28 30 32 34 35 34 35 36 39 46 48 49 51 52 54 57 60 62 65 68 72 73 75 76 80 74 69 71 78 78 87 64 69 74 74 78
34 32 33 33 31 31 30 31 32 34 35 36 36 37 42 46 48 51 52 54 57 59 61 64 66 69 71 74 75 75 75 75 78 71 68 66 71 81 88 70 77 82 82
37 36 35 33 29 29 29 30 30 32 34 35 37 41 45 47 50 54 58 60 62 63 66 69 71 74 75 77 78 78 77 74 75 75 75 74 76 74 84 101 92 86 79
35 34 31 25 26 24 25 26 28 33 35 38 41 45 50 54 59 63 66 68 68 70 72 76 76 77 80 82 81 80 79 77 75 74 74 76 79 84 87 96 103 98 82
32 32 31 30 29 30 29 30 33 36 38 41 45 50 54 58 63 67 71 75 77 78 81 81 81 83 83 84 83 83 82 81 80 79 79 78 79 80 85 93 101 100 100
31 30 29 29 30 32 33 35 38 41 42 45 50 53 56 62 66 70 74 77 80 82 84 83 86 87 86 84 83 83 83 81 82 85 83 84 83 82 84 91 99 110 101
32 30 30 30 31 33 35 37 40 44 48 50 54 58 62 67 72 75 78 81 83 86 87 90 89 87 86 86 86 86 86 85 85 85 85 85 84 83 84 86 91 101 115
32 31 31 31 33 34 36 39 43 48 52 56 60 65 70 72 75 79 85 87 87 88 88 88 88 88 87 86 86 89 87 90 89 88 89 88 87 88 86 88 92 94 105
34 34 34 35 35 36 38 42 46 52 58 62 66 71 74 77 80 83 86 89 89 89 90 91 91 91 90 88 90 91 91 92 91 89 91 93 90 91 90 90 92 97 100
37 38 39 39 39 41 45 50 54 60 65 69 74 77 80 83 86 88 87 87 89 88 90 90 91 91 90 89 89 91 89 92 93 92 91 92 88 90 89 91 95 97 99
44 41 43 46 49 49 52 58 63 68 70 75 79 83 85 86 87 87 87 86 88 89 88 88 89 88 86 86 85 86 87 87 87 87 87 86 85 89 88 89 93 95 98
48 48 50 52 55 58 62 66 70 72 77 80 83 86 86 86 87 86 86 86 85 86 86 84 84 83 83 83 82 83 83 83 81 79 80 81 82 85 86 88 92 95 101
57 59 62 63 62 64 68 72 76 78 80 83 85 87 86 85 85 86 85 84 83 82 81 80 78 78 78 77 76 76 78 79 80 78 77 78 77 79 82 85 89 91 95
64 65 68 70 72 71 74 76 80 84 84 88 89 87 86 85 84 83 82 80 78 77 76 76 76 76 74 74 75 77 78 78 78 79 76 75 75 79 85 88 90 91 99
66 71 75 78 76 76 77 83 85 84 85 85 84 83 82 82 80 78 77 77 77 75 74 74 74 74 73 73 76 75 74 74 72 73 74 77 76 78 83 89 91 94 96
75 79 82 83 79 75 77 81 83 83 85 88 85 81 81 85 81 79 80 79 77 77 77 76 75 76 74 74 74 72 71 71 71 73 76 78 81 81 82 89 94 94 93
78 81 82 82 79 76 77 85 86 84 83 84 80 78 78 81 77 75 74 75 76 76 76 77 77 77 76 74 74 73 72 71 70 72 75 77 82 82 85 89 94 98 99
80 83 81 80 78 77 77 81 80 77 78 76 72 69 71 71 71 71 71 70 70 73 74 78 76 77 82 80 78 75 72 71 68 70 73 75 79 86 88 89 93 98 95
87 84 80 78 75 72 71 75 73 73 72 68 67 66 66 68 67 67 65 69 69 70 73 77 76 79 79 78 74 69 67 65 66 69 73 74 79 84 91 96 91 91 91
81 77 76 74 69 67 67 70 71 72 70 68 67 66 66 66 65 63 65 66 66 68 72 74 80 78 74 72 70 67 62 59 62 69 74 78 86 92 90 89 89 93 97
79 76 75 75 72 68 65 71 72 70 68 68 68 68 67 67 65 64 65 66 64 66 69 71 77 77 71 68 65 64 59 61 69 71 73 80 89 94 91 87 91 91 81
83 79 77 77 77 72 70 70 71 69 69 70 69 69 68 68 64 61 61 62 63 64 65 68 72 73 70 64 59 55 55 61 65 67 70 73 77 82 85 82 80 81 82
84 80 80 81 81 77 74 72 72 70 71 70 70 69 68 66 63 61 59 59 59 58 61 61 61 64 64 59 53 52 52 51 55 61 60 67 76 75 77 80 83 83 83
86 84 83 82 82 79 77 74 71 69 71 72 70 68 66 61 59 57 58 55 59 57 57 60 56 55 51 54 50 50 62 71 73 72 69 65 74 81 85 86 86 85 87
Wind_Direction
273 277 284 291 297 303 306 309 310 311 310 312 316 320 324 330 333 334 333 332 330 330 329 327 326 326 325 324 324 322 320 318 318 313 310 309 306 303 307 306 305 305 305
266 270 276 282 288 293 299 304 309 312 313 313 314 316 319 325 329 330 330 330 329 328 327 325 324 323 321 321 321 321 318 317 320 314 308 301 303 299 306 305 305 304 304
259 264 269 275 281 285 291 298 305 310 313 314 313 315 317 318 319 322 324 326 327 326 326 324 322 322 321 319 318 318 317 313 315 317 311 301 295 300 300 302 304 304 303
264 265 269 274 278 285 293 297 302 306 311 314 315 314 312 311 315 317 319 320 322 322 322 322 321 320 319 317 316 317 315 314 310 311 312 308 302 298 293 299 302 304 302
263 263 267 271 278 283 289 296 302 307 311 314 315 314 314 315 315 316 316 317 319 320 320 320 319 317 317 315 313 313 312 312 309 307 306 305 303 300 294 291 295 301 303
264 265 268 270 276 285 290 296 301 305 309 311 313 313 312 312 312 313 313 314 315 316 317 317 316 315 314 312 311 310 309 308 307 306 304 302 299 298 297 294 294 293 298
271 265 265 268 274 280 287 293 296 300 306 308 310 312 312 312 312 312 312 311 312 312 313 314 313 312 312 311 310 308 306 305 303 303 302 301 299 298 297 295 294 292 295
278 268 267 271 278 283 288 292 295 298 304 307 309 312 312 312 311 311 311 310 310 310 311 311 310 310 309 309 308 307 305 304 302 300 300 298 298 297 296 294 294 293 292
282 273 274 277 281 285 289 292 296 300 303 307 309 310 311 311 310 310 310 309 310 309 309 309 308 308 307 306 305 304 303 302 301 299 299 298 298 297 297 296 294 292 291
288 282 280 283 288 290 293 296 298 300 304 306 308 308 309 310 310 309 308 308 310 309 309 308 308 306 306 305 304 301 301 299 299 298 296 296 296 296 296 295 294 293 291
290 287 287 289 291 293 295 297 299 301 303 305 307 308 309 309 309 308 308 308 308 308 307 306 305 304 303 302 301 299 299 297 297 296 295 294 295 294 294 294 294 293 292
296 293 291 291 292 294 297 298 301 302 303 305 305 307 307 308 307 308 308 308 307 307 306 305 304 303 302 302 300 299 298 297 295 294 294 293 294 293 293 293 293 293 293
301 298 294 293 293 296 298 299 300 302 303 305 305 306 306 307 307 307 307 307 307 306 306 305 304 303 303 302 301 299 298 297 296 295 294 293 293 292 292 292 292 293 294
300 300 299 298 297 298 298 300 301 303 304 304 305 305 305 306 306 307 307 307 307 306 305 305 304 303 303 302 301 300 298 297 296 295 294 293 292 292 292 293 293 293 294
299 299 299 299 299 299 300 301 302 303 304 304 304 304 305 306 305 305 306 306 305 305 305 304 304 304 304 303 302 301 299 298 296 295 295 294 293 292 292 293 294 295 294
299 300 300 300 300 300 301 302 303 303 304 303 302 303 304 304 304 304 305 306 306 305 305 304 304 304 304 304 302 301 299 298 296 295 295 295 294 294 294 294 294 294 293
302 302 301 301 300 300 301 302 303 304 303 303 303 304 304 304 303 304 304 304 304 305 304 303 303 303 303 303 303 301 299 298 297 296 296 295 295 295 295 295 295 295 295
303 303 303 302 300 300 302 304 305 304 304 303 302 303 304 304 303 302 301 302 302 301 301 301 302 302 303 303 303 302 301 299 297 296 295 294 294 295 296 296 296 296 297
304 304 305 304 302 299 302 304 304 304 304 304 303 304 305 305 304 302 302 302 301 300 299 300 300 299 300 302 302 301 301 299 298 297 295 294 294 295 296 297 296 296 295
305 305 305 305 303 302 303 304 304 305 305 305 305 306 307 306 304 303 302 303 302 300 300 299 298 298 299 300 300 300 300 298 298 297 295 294 294 295 296 297 298 296 297
306 306 305 304 304 305 305 304 305 305 306 308 308 308 307 307 306 305 304 303 301 300 299 298 298 299 299 299 300 299 298 297 297 296 296 296 296 296 296 296 297 296 297
309 308 307 306 307 307 306 305 305 307 308 309 309 309 309 308 307 305 305 304 302 300 300 299 298 300 300 300 300 299 297 295 294 295 296 297 296 296 296 297 296 295 295
308 309 307 307 307 307 306 305 307 309 309 309 308 308 309 308 306 304 304 303 302 300 300 299 299 300 302 302 302 300 299 297 296 296 297 297 295 294 296 297 295 294 298
306 307 306 305 305 306 305 304 306 307 307 307 308 309 309 309 307 305 304 302 301 300 300 299 299 299 301 303 305 305 303 300 298 298 299 300 299 298 297 297 297 297 297
306 305 304 303 303 305 304 305 306 306 305 306 307 308 309 308 307 304 302 301 300 299 300 300 300 300 301 303 304 304 303 301 300 301 302 303 302 299 297 296 295 295 295
306 304 303 303 303 304 304 305 305 305 304 305 306 308 309 308 307 306 305 303 302 301 299 298 296 298 295 300 301 299 298 298 299 300 303 304 299 295 292 291 290 290 290